Torna al catalogo

KUIPER-00540

AttivoComunicazioniVLEO
NORAD 69609·PAYLOAD·🇺🇸 United States

Lanciato Jun 17, 2026 da Guiana Space Centre

Loading…

Prossimi Passaggi (prossime 24 ore)

TLE

AggiornatoSource: CelesTrak SupGP

Epoca: Sep 14, 2026, 21:47 UTC

1 69609C 26140T   26257.90765046  .00002950  00000+0  76910-4 0  2571
2 69609  51.8812 325.0251 0004777 245.6443 152.8214 15.38230677    14

Traccia KUIPER-00540 in tempo reale con AllMySat

Download on the App Store